,,Stat6,,Stat2,,Stat8,,Stat9,,Stat10,,Wind1,,Wind1,
time,status,PA1M_AVG,status,PR1M_SUM,status,RH1M_AVG,status,SR1M_AVG,status,TA1M_AVG,status,W1dAve1m,status,W1sAve1m,
2008-07-03, 00:00:00,VALID,919.091,VALID,0,VALID,100,VALID,-0.0509425,VALID,18.6591,VALID,111,VALID,0.461301,
2008-07-03, 00:01:00,VALID,919.075,VALID,0,VALID,100,VALID,-0.0509425,VALID,18.6489,VALID,118,VALID,0.171113,
2008-07-03, 00:02:00,VALID,919.066,VALID,0,VALID,100,VALID,-0.0169808,VALID,18.6656,VALID,131,VALID,0,
2008-07-03, 00:03:00,VALID,919.068,VALID,0,VALID,100,VALID,-0.0849042,VALID,18.6654,VALID,138,VALID,0,
2008-07-03, 00:04:00,VALID,919.056,VALID,0,VALID,100,VALID,-0.0339617,VALID,18.6851,VALID,142,VALID,0,
2008-07-03, 00:05:00,VALID,919.072,VALID,0,VALID,100,VALID,-0.0509425,VALID,18.7046,VALID,143,VALID,0,
2008-07-03, 00:06:00,VALID,919.069,VALID,0,VALID,100,VALID,-0.0169808,VALID,18.7305,VALID,145,VALID,0,
2008-07-03, 00:07:00,VALID,919.062,VALID,0,VALID,100,VALID,-0.0679233,VALID,18.7402,VALID,145,VALID,0,
2008-07-03, 00:08:00,VALID,919.069,VALID,0,VALID,100,VALID,-0.0679233,VALID,18.7527,VALID,145,VALID,0,
2008-07-03, 00:09:00,VALID,919.07,VALID,0,VALID,100,VALID,-0.0679233,VALID,18.7694,VALID,145,VALID,0,
2008-07-03, 00:10:00,VALID,919.085,VALID,0,VALID,100,VALID,-0.0509425,VALID,18.7822,VALID,145,VALID,0,
2008-07-03, 00:11:00,VALID,919.097,VALID,0,VALID,100,VALID,-0.0169808,VALID,18.7889,VALID,145,VALID,0,
2008-07-03, 00:12:00,VALID,919.089,VALID,0,VALID,100,VALID,-0.0849042,VALID,18.8021,VALID,145,VALID,0,
2008-07-03, 00:13:00,VALID,919.07,VALID,0,VALID,100,VALID,-0.0169808,VALID,18.8046,VALID,145,VALID,0.0320122,
2008-07-03, 00:14:00,VALID,919.042,VALID,0,VALID,100,VALID,-0.0509425,VALID,18.8051,VALID,139,VALID,0.259487,
2008-07-03, 00:15:00,VALID,919.016,VALID,0,VALID,100,VALID,0,VALID,18.7984,VALID,128,VALID,0.497523,
2008-07-03, 00:16:00,VALID,918.981,VALID,0,VALID,100,VALID,-0.0169808,VALID,18.7889,VALID,129,VALID,0.837984,
2008-07-03, 00:17:00,VALID,918.946,VALID,0,VALID,100,VALID,-0.0339617,VALID,18.7826,VALID,130,VALID,1.02858,
2008-07-03, 00:18:00,VALID,918.907,VALID,0,VALID,100,VALID,-0.0339617,VALID,18.7824,VALID,133,VALID,0.906808,
2008-07-03, 00:19:00,VALID,918.888,VALID,0,VALID,100,VALID,-0.0339617,VALID,18.7789,VALID,128,VALID,0.823153,
2008-07-03, 00:20:00,VALID,918.871,VALID,0,VALID,100,VALID,-0.0509425,VALID,18.7891,VALID,124,VALID,0.685082,
2008-07-03, 00:21:00,VALID,918.853,VALID,0,VALID,100,VALID,-0.0509425,VALID,18.7891,VALID,127,VALID,0.443979,
2008-07-03, 00:22:00,VALID,918.841,VALID,0,VALID,100,VALID,-0.0679233,VALID,18.7921,VALID,127,VALID,0.0958059,
2008-07-03, 00:23:00,VALID,918.834,VALID,0,VALID,100,VALID,-0.0339617,VALID,18.7986,VALID,129,VALID,0.694041,
2008-07-03, 00:24:00,VALID,918.837,VALID,0,VALID,100,VALID,-0.0509425,VALID,18.7986,VALID,129,VALID,0.173692,
2008-07-03, 00:25:00,VALID,918.837,VALID,0,VALID,100,VALID,-0.0849042,VALID,18.8053,VALID,128,VALID,0.322599,
2008-07-03, 00:26:00,VALID,918.84,VALID,0,VALID,100,VALID,-0.0169808,VALID,18.7984,VALID,125,VALID,0.486737,
2008-07-03, 00:27:00,VALID,918.844,VALID,0,VALID,100,VALID,-0.0339617,VALID,18.7956,VALID,123,VALID,0.788876,
2008-07-03, 00:28:00,VALID,918.851,VALID,0,VALID,100,VALID,-0.0169808,VALID,18.7822,VALID,126,VALID,0.904647,
2008-07-03, 00:29:00,VALID,918.848,VALID,0,VALID,100,VALID,-0.0339617,VALID,18.7954,VALID,132,VALID,0.634475,
2008-07-03, 00:30:00,VALID,918.856,VALID,0,VALID,100,VALID,-0.0169808,VALID,18.7951,VALID,127,VALID,0.822181,
2008-07-03, 00:31:00,VALID,918.852,VALID,0,VALID,100,VALID,-0.0679233,VALID,18.7887,VALID,126,VALID,0.626272,
2008-07-03, 00:32:00,VALID,918.854,VALID,0,VALID,100,VALID,-0.0679233,VALID,18.8021,VALID,124,VALID,0.297991,
2008-07-03, 00:33:00,VALID,918.835,VALID,0,VALID,100,VALID,-0.0169808,VALID,18.8016,VALID,123,VALID,0.483008,
2008-07-03, 00:34:00,VALID,918.821,VALID,0,VALID,100,VALID,-0.0679233,VALID,18.8053,VALID,124,VALID,0.430778,
2008-07-03, 00:35:00,VALID,918.818,VALID,0,VALID,100,VALID,-0.0679233,VALID,18.8151,VALID,130,VALID,0.629261,
2008-07-03, 00:36:00,VALID,918.802,VALID,0,VALID,100,VALID,-0.0339617,VALID,18.8153,VALID,141,VALID,0.33724,
2008-07-03, 00:37:00,VALID,918.782,VALID,0,VALID,100,VALID,-0.0679233,VALID,18.8216,VALID,135,VALID,0,
2008-07-03, 00:38:00,VALID,918.763,VALID,0,VALID,100,VALID,-0.0849042,VALID,18.8508,VALID,128,VALID,0,
2008-07-03, 00:39:00,VALID,918.732,VALID,0,VALID,100,VALID,-0.0849042,VALID,18.8767,VALID,128,VALID,0,
2008-07-03, 00:40:00,VALID,918.702,VALID,0,VALID,100,VALID,-0.0679233,VALID,18.8605,VALID,128,VALID,0,
2008-07-03, 00:41:00,VALID,918.666,VALID,0,VALID,100,VALID,-0.0849042,VALID,18.8737,VALID,128,VALID,0,
2008-07-03, 00:42:00,VALID,918.656,VALID,0,VALID,100,VALID,-0.0679233,VALID,18.8832,VALID,128,VALID,0,
2008-07-03, 00:43:00,VALID,918.637,VALID,0,VALID,100,VALID,-0.0169808,VALID,18.8695,VALID,128,VALID,0,
2008-07-03, 00:44:00,VALID,918.627,VALID,0,VALID,100,VALID,-0.0679233,VALID,18.8702,VALID,128,VALID,0,
2008-07-03, 00:45:00,VALID,918.607,VALID,0,VALID,100,VALID,-0.0679233,VALID,18.8605,VALID,128,VALID,0,
2008-07-03, 00:46:00,VALID,918.6,VALID,0,VALID,100,VALID,-0.0509425,VALID,18.8665,VALID,128,VALID,0,
2008-07-03, 00:47:00,VALID,918.582,VALID,0,VALID,100,VALID,-0.101885,VALID,18.8897,VALID,130,VALID,0,
2008-07-03, 00:48:00,VALID,918.573,VALID,0,VALID,100,VALID,-0.0849042,VALID,18.8702,VALID,134,VALID,0,
2008-07-03, 00:49:00,VALID,918.544,VALID,0,VALID,100,VALID,-0.0679233,VALID,18.8735,VALID,134,VALID,0,
2008-07-03, 00:50:00,VALID,918.549,VALID,0,VALID,100,VALID,-0.0849042,VALID,18.8637,VALID,134,VALID,0,
2008-07-03, 00:51:00,VALID,918.547,VALID,0,VALID,100,VALID,-0.0849042,VALID,18.8702,VALID,134,VALID,0,
2008-07-03, 00:52:00,VALID,918.544,VALID,0,VALID,100,VALID,-0.0849042,VALID,18.8767,VALID,134,VALID,0,
2008-07-03, 00:53:00,VALID,918.562,VALID,0,VALID,100,VALID,-0.0509425,VALID,18.8762,VALID,134,VALID,0,
2008-07-03, 00:54:00,VALID,918.575,VALID,0,VALID,100,VALID,0,VALID,18.8855,VALID,134,VALID,0,
2008-07-03, 00:55:00,VALID,918.586,VALID,0,VALID,100,VALID,-0.0169808,VALID,18.8686,VALID,135,VALID,0.325,
2008-07-03, 00:56:00,VALID,918.584,VALID,0,VALID,100,VALID,0,VALID,18.8493,VALID,145,VALID,0.795387,
2008-07-03, 00:57:00,VALID,918.572,VALID,0,VALID,100,VALID,0,VALID,18.8391,VALID,149,VALID,0.393359,
2008-07-03, 00:58:00,VALID,918.559,VALID,0,VALID,100,VALID,0.0339617,VALID,18.8396,VALID,119,VALID,0,
2008-07-03, 00:59:00,VALID,918.547,VALID,0,VALID,100,VALID,0.0509425,VALID,18.8326,VALID,120,VALID,0.569404,
2008-07-03, 01:00:00,VALID,918.54,VALID,0,VALID,100,VALID,0.0169808,VALID,18.8359,VALID,120,VALID,0.214286,
2008-07-03, 01:01:00,VALID,918.516,VALID,0,VALID,100,VALID,0.0169808,VALID,18.8394,VALID,122,VALID,0.510719,
2008-07-03, 01:02:00,VALID,918.484,VALID,0,VALID,100,VALID,-0.0169808,VALID,18.8526,VALID,123,VALID,0.335392,
2008-07-03, 01:03:00,VALID,918.45,VALID,0,VALID,100,VALID,0.0169808,VALID,18.8556,VALID,123,VALID,0.00247713,
2008-07-03, 01:04:00,VALID,918.431,VALID,0,VALID,100,VALID,0.0339617,VALID,18.8653,VALID,123,VALID,0,
2008-07-03, 01:05:00,VALID,918.42,VALID,0,VALID,100,VALID,0,VALID,18.8686,VALID,123,VALID,0,
2008-07-03, 01:06:00,VALID,918.393,VALID,0,VALID,100,VALID,0,VALID,18.888,VALID,123,VALID,0,
2008-07-03, 01:07:00,VALID,918.372,VALID,0,VALID,100,VALID,0.0339617,VALID,18.8978,VALID,123,VALID,0,
2008-07-03, 01:08:00,VALID,918.357,VALID,0,VALID,100,VALID,0,VALID,18.8883,VALID,123,VALID,0,
2008-07-03, 01:09:00,VALID,918.372,VALID,0,VALID,100,VALID,-0.0679233,VALID,18.9186,VALID,123,VALID,0,
2008-07-03, 01:10:00,VALID,918.384,VALID,0,VALID,100,VALID,-0.0849042,VALID,18.9351,VALID,123,VALID,0,
2008-07-03, 01:11:00,VALID,918.386,VALID,0,VALID,100,VALID,-0.0509425,VALID,18.9414,VALID,123,VALID,0,
2008-07-03, 01:12:00,VALID,918.39,VALID,0,VALID,100,VALID,-0.0849042,VALID,18.9414,VALID,123,VALID,0,
2008-07-03, 01:13:00,VALID,918.395,VALID,0,VALID,100,VALID,-0.0509425,VALID,18.9087,VALID,123,VALID,0.161156,
2008-07-03, 01:14:00,VALID,918.384,VALID,0,VALID,100,VALID,-0.0679233,VALID,18.8962,VALID,121,VALID,0.581692,
2008-07-03, 01:15:00,VALID,918.365,VALID,0,VALID,100,VALID,-0.0849042,VALID,18.886,VALID,119,VALID,0.852653,
2008-07-03, 01:16:00,VALID,918.352,VALID,0,VALID,100,VALID,-0.0509425,VALID,18.8897,VALID,120,VALID,0.708394,
2008-07-03, 01:17:00,VALID,918.323,VALID,0,VALID,100,VALID,-0.0849042,VALID,18.8765,VALID,118,VALID,0.780705,
2008-07-03, 01:18:00,VALID,918.293,VALID,0,VALID,100,VALID,-0.0679233,VALID,18.857,VALID,126,VALID,0.731831,
2008-07-03, 01:19:00,VALID,918.291,VALID,0,VALID,100,VALID,-0.0849042,VALID,18.8603,VALID,125,VALID,0.191502,
2008-07-03, 01:20:00,VALID,918.281,VALID,0,VALID,100,VALID,-0.0509425,VALID,18.8503,VALID,125,VALID,0,
2008-07-03, 01:21:00,VALID,918.279,VALID,0,VALID,100,VALID,-0.0849042,VALID,18.854,VALID,125,VALID,0,
2008-07-03, 01:22:00,VALID,918.272,VALID,0,VALID,100,VALID,-0.0849042,VALID,18.8603,VALID,125,VALID,0,
2008-07-03, 01:23:00,VALID,918.282,VALID,0,VALID,100,VALID,-0.0509425,VALID,18.8565,VALID,125,VALID,0,
2008-07-03, 01:24:00,VALID,918.277,VALID,0,VALID,100,VALID,0.0169808,VALID,18.8326,VALID,125,VALID,0.0373884,
2008-07-03, 01:25:00,VALID,918.268,VALID,0,VALID,100,VALID,0.0339617,VALID,18.8132,VALID,125,VALID,0,
2008-07-03, 01:26:00,VALID,918.265,VALID,0,VALID,100,VALID,0.0169808,VALID,18.8069,VALID,129,VALID,0.619004,
2008-07-03, 01:27:00,VALID,918.245,VALID,0,VALID,100,VALID,0,VALID,18.8039,VALID,150,VALID,0.793857,
2008-07-03, 01:28:00,VALID,918.229,VALID,0,VALID,100,VALID,0.0169808,VALID,18.8037,VALID,151,VALID,0.754492,
2008-07-03, 01:29:00,VALID,918.215,VALID,0,VALID,100,VALID,0.0509425,VALID,18.794,VALID,148,VALID,0.484561,
2008-07-03, 01:30:00,VALID,918.194,VALID,0,VALID,100,VALID,0.0339617,VALID,18.7942,VALID,134,VALID,0.373857,
2008-07-03, 01:31:00,VALID,918.173,VALID,0,VALID,100,VALID,0.0169808,VALID,18.7812,VALID,126,VALID,0.635653,
2008-07-03, 01:32:00,VALID,918.151,VALID,0,VALID,100,VALID,0,VALID,18.7648,VALID,108,VALID,0.724609,
2008-07-03, 01:33:00,VALID,918.141,VALID,0,VALID,100,VALID,0.0679233,VALID,18.7446,VALID,110,VALID,0.566311,
2008-07-03, 01:34:00,VALID,918.144,VALID,0,VALID,100,VALID,0.0169808,VALID,18.7451,VALID,126,VALID,0.743608,
2008-07-03, 01:35:00,VALID,918.144,VALID,0,VALID,100,VALID,0.0509425,VALID,18.7226,VALID,120,VALID,0.535247,
2008-07-03, 01:36:00,VALID,918.148,VALID,0,VALID,100,VALID,0.0169808,VALID,18.7321,VALID,122,VALID,0.0187922,
2008-07-03, 01:37:00,VALID,918.16,VALID,0,VALID,100,VALID,0.0679233,VALID,18.7321,VALID,128,VALID,0.783537,
2008-07-03, 01:38:00,VALID,918.159,VALID,0,VALID,100,VALID,0,VALID,18.7261,VALID,129,VALID,0.834847,
2008-07-03, 01:39:00,VALID,918.169,VALID,0,VALID,100,VALID,-0.0849042,VALID,18.7238,VALID,128,VALID,0.422637,
2008-07-03, 01:40:00,VALID,918.167,VALID,0,VALID,100,VALID,-0.0509425,VALID,18.7103,VALID,124,VALID,0.00400152,
2008-07-03, 01:41:00,VALID,918.152,VALID,0,VALID,100,VALID,-0.0509425,VALID,18.7048,VALID,109,VALID,0,
2008-07-03, 01:42:00,VALID,918.147,VALID,0,VALID,100,VALID,-0.0679233,VALID,18.6916,VALID,107,VALID,0,
2008-07-03, 01:43:00,VALID,918.14,VALID,0,VALID,100,VALID,-0.0509425,VALID,18.6754,VALID,109,VALID,0,
2008-07-03, 01:44:00,VALID,918.135,VALID,0,VALID,100,VALID,-0.101885,VALID,18.6756,VALID,122,VALID,0,
2008-07-03, 01:45:00,VALID,918.129,VALID,0,VALID,100,VALID,-0.0849042,VALID,18.6749,VALID,130,VALID,0,
2008-07-03, 01:46:00,VALID,918.122,VALID,0,VALID,100,VALID,-0.0509425,VALID,18.6784,VALID,130,VALID,0,
2008-07-03, 01:47:00,VALID,918.098,VALID,0,VALID,100,VALID,-0.0339617,VALID,18.7011,VALID,130,VALID,0,
2008-07-03, 01:48:00,VALID,918.09,VALID,0,VALID,100,VALID,-0.0849042,VALID,18.7011,VALID,130,VALID,0,
2008-07-03, 01:49:00,VALID,918.068,VALID,0,VALID,100,VALID,-0.0679233,VALID,18.6946,VALID,130,VALID,0,
2008-07-03, 01:50:00,VALID,918.039,VALID,0,VALID,100,VALID,-0.0679233,VALID,18.6816,VALID,130,VALID,0,
2008-07-03, 01:51:00,VALID,918.042,VALID,0,VALID,100,VALID,-0.0509425,VALID,18.6723,VALID,118,VALID,0,
2008-07-03, 01:52:00,VALID,918.025,VALID,0,VALID,100,VALID,-0.101885,VALID,18.6561,VALID,100,VALID,0.076029,
2008-07-03, 01:53:00,VALID,918.02,VALID,0,VALID,100,VALID,-0.0679233,VALID,18.6457,VALID,88,VALID,0.857422,
2008-07-03, 01:54:00,VALID,918.021,VALID,0,VALID,100,VALID,0,VALID,18.6383,VALID,94,VALID,0.64117,
2008-07-03, 01:55:00,VALID,917.986,VALID,0,VALID,100,VALID,-0.0169808,VALID,18.6353,VALID,117,VALID,0.886819,
2008-07-03, 01:56:00,VALID,917.975,VALID,0,VALID,100,VALID,0,VALID,18.6285,VALID,129,VALID,0.535473,
2008-07-03, 01:57:00,VALID,917.97,VALID,0,VALID,100,VALID,-0.0169808,VALID,18.632,VALID,136,VALID,0,
2008-07-03, 01:58:00,VALID,917.962,VALID,0,VALID,100,VALID,0,VALID,18.6281,VALID,150,VALID,0.311198,
2008-07-03, 01:59:00,VALID,917.945,VALID,0,VALID,100,VALID,0.0339617,VALID,18.6348,VALID,146,VALID,1.20645,
2008-07-03, 02:00:00,VALID,917.964,VALID,0,VALID,100,VALID,0.0169808,VALID,18.6445,VALID,145,VALID,0.657118,
2008-07-03, 02:01:00,VALID,917.963,VALID,0,VALID,100,VALID,0.0169808,VALID,18.644,VALID,151,VALID,0.589134,
2008-07-03, 02:02:00,VALID,917.973,VALID,0,VALID,100,VALID,0,VALID,18.6605,VALID,146,VALID,0.69215,
2008-07-03, 02:03:00,VALID,917.978,VALID,0,VALID,100,VALID,0,VALID,18.6707,VALID,148,VALID,0.143169,
2008-07-03, 02:04:00,VALID,917.958,VALID,0,VALID,100,VALID,0,VALID,18.6769,VALID,158,VALID,0.0110828,
2008-07-03, 02:05:00,VALID,917.948,VALID,0,VALID,100,VALID,0,VALID,18.6839,VALID,158,VALID,0,
2008-07-03, 02:06:00,VALID,917.917,VALID,0,VALID,100,VALID,0,VALID,18.6804,VALID,158,VALID,0,
2008-07-03, 02:07:00,VALID,917.901,VALID,0,VALID,100,VALID,-0.0169808,VALID,18.6807,VALID,158,VALID,0,
2008-07-03, 02:08:00,VALID,917.884,VALID,0,VALID,100,VALID,-0.0509425,VALID,18.6844,VALID,158,VALID,0,
2008-07-03, 02:09:00,VALID,917.88,VALID,0,VALID,100,VALID,-0.118866,VALID,18.6951,VALID,158,VALID,0,
2008-07-03, 02:10:00,VALID,917.88,VALID,0,VALID,100,VALID,-0.118866,VALID,18.708,VALID,158,VALID,0,
2008-07-03, 02:11:00,VALID,917.892,VALID,0,VALID,100,VALID,-0.101885,VALID,18.7046,VALID,158,VALID,0,
2008-07-03, 02:12:00,VALID,917.888,VALID,0,VALID,100,VALID,-0.0849042,VALID,18.7113,VALID,158,VALID,0,
2008-07-03, 02:13:00,VALID,917.893,VALID,0,VALID,100,VALID,-0.0849042,VALID,18.7046,VALID,144,VALID,0,
2008-07-03, 02:14:00,VALID,917.883,VALID,0,VALID,100,VALID,-0.0849042,VALID,18.6721,VALID,123,VALID,0,
2008-07-03, 02:15:00,VALID,917.886,VALID,0,VALID,100,VALID,-0.0849042,VALID,18.6629,VALID,122,VALID,0.0991848,
2008-07-03, 02:16:00,VALID,917.867,VALID,0,VALID,100,VALID,-0.101885,VALID,18.6464,VALID,122,VALID,0,
2008-07-03, 02:17:00,VALID,917.865,VALID,0,VALID,100,VALID,-0.101885,VALID,18.6397,VALID,122,VALID,0,
2008-07-03, 02:18:00,VALID,917.855,VALID,0,VALID,100,VALID,-0.101885,VALID,18.6195,VALID,122,VALID,0,
2008-07-03, 02:19:00,VALID,917.838,VALID,0,VALID,100,VALID,-0.0339617,VALID,18.6397,VALID,122,VALID,0,
2008-07-03, 02:20:00,VALID,917.838,VALID,0,VALID,100,VALID,-0.101885,VALID,18.6429,VALID,122,VALID,0,
2008-07-03, 02:21:00,VALID,917.834,VALID,0,VALID,100,VALID,-0.0849042,VALID,18.6529,VALID,123,VALID,0,
2008-07-03, 02:22:00,VALID,917.83,VALID,0,VALID,100,VALID,-0.101885,VALID,18.6626,VALID,123,VALID,0,
2008-07-03, 02:23:00,VALID,917.826,VALID,0,VALID,100,VALID,-0.101885,VALID,18.6721,VALID,123,VALID,0,
2008-07-03, 02:24:00,VALID,917.82,VALID,0,VALID,100,VALID,-0.101885,VALID,18.6719,VALID,123,VALID,0,
2008-07-03, 02:25:00,VALID,917.812,VALID,0,VALID,100,VALID,-0.101885,VALID,18.6788,VALID,123,VALID,0,
2008-07-03, 02:26:00,VALID,917.804,VALID,0,VALID,100,VALID,-0.101885,VALID,18.6624,VALID,123,VALID,0,
2008-07-03, 02:27:00,VALID,917.771,VALID,0,VALID,100,VALID,-0.152827,VALID,18.6596,VALID,123,VALID,0,
2008-07-03, 02:28:00,VALID,917.743,VALID,0,VALID,100,VALID,-0.118866,VALID,18.6529,VALID,123,VALID,0,
2008-07-03, 02:29:00,VALID,917.702,VALID,0,VALID,100,VALID,-0.101885,VALID,18.6464,VALID,123,VALID,0,
2008-07-03, 02:30:00,VALID,917.67,VALID,0,VALID,100,VALID,-0.118866,VALID,18.6529,VALID,123,VALID,0,
2008-07-03, 02:31:00,VALID,917.643,VALID,0,VALID,100,VALID,-0.101885,VALID,18.6596,VALID,123,VALID,0,
2008-07-03, 02:32:00,VALID,917.631,VALID,0,VALID,100,VALID,-0.101885,VALID,18.6496,VALID,123,VALID,0,
2008-07-03, 02:33:00,VALID,917.625,VALID,0,VALID,100,VALID,-0.0849042,VALID,18.6429,VALID,107,VALID,0,
2008-07-03, 02:34:00,VALID,917.618,VALID,0,VALID,100,VALID,-0.101885,VALID,18.6367,VALID,96,VALID,0,
2008-07-03, 02:35:00,VALID,917.607,VALID,0,VALID,100,VALID,-0.118866,VALID,18.614,VALID,96,VALID,0,
2008-07-03, 02:36:00,VALID,917.596,VALID,0,VALID,100,VALID,-0.101885,VALID,18.5843,VALID,96,VALID,0,
2008-07-03, 02:37:00,VALID,917.582,VALID,0,VALID,100,VALID,-0.152827,VALID,18.5818,VALID,96,VALID,0,
2008-07-03, 02:38:00,VALID,917.651,VALID,0,VALID,100,VALID,-0.0849042,VALID,18.5716,VALID,96,VALID,0,
2008-07-03, 02:39:00,VALID,917.578,VALID,0,VALID,100,VALID,0,VALID,18.5607,VALID,96,VALID,0,
2008-07-03, 02:40:00,VALID,917.573,VALID,0,VALID,100,VALID,0,VALID,18.5607,VALID,96,VALID,0,
2008-07-03, 02:41:00,VALID,917.551,VALID,0,VALID,100,VALID,0,VALID,18.5637,VALID,96,VALID,0,
2008-07-03, 02:42:00,VALID,917.555,VALID,0,VALID,100,VALID,0,VALID,18.5736,VALID,96,VALID,0,
2008-07-03, 02:43:00,VALID,917.551,VALID,0,VALID,100,VALID,0.0169808,VALID,18.5764,VALID,96,VALID,0,
2008-07-03, 02:44:00,VALID,917.536,VALID,0,VALID,100,VALID,0.0169808,VALID,18.5894,VALID,96,VALID,0,
2008-07-03, 02:45:00,VALID,917.526,VALID,0,VALID,100,VALID,0,VALID,18.5961,VALID,96,VALID,0,
2008-07-03, 02:46:00,VALID,917.515,VALID,0,VALID,100,VALID,0.0339617,VALID,18.6156,VALID,96,VALID,0,
2008-07-03, 02:47:00,VALID,917.506,VALID,0,VALID,100,VALID,0.0339617,VALID,18.6318,VALID,96,VALID,0,
2008-07-03, 02:48:00,VALID,917.493,VALID,0,VALID,100,VALID,0,VALID,18.6348,VALID,96,VALID,0,
2008-07-03, 02:49:00,VALID,917.509,VALID,0,VALID,100,VALID,0,VALID,18.635,VALID,109,VALID,0,
2008-07-03, 02:50:00,VALID,917.497,VALID,0,VALID,100,VALID,0,VALID,18.6378,VALID,130,VALID,0,
2008-07-03, 02:51:00,VALID,917.485,VALID,0,VALID,100,VALID,0.0169808,VALID,18.6343,VALID,130,VALID,0,
2008-07-03, 02:52:00,VALID,917.508,VALID,0,VALID,100,VALID,0,VALID,18.6415,VALID,130,VALID,0,
2008-07-03, 02:53:00,VALID,917.507,VALID,0,VALID,100,VALID,-0.0169808,VALID,18.6647,VALID,130,VALID,0,
2008-07-03, 02:54:00,VALID,917.517,VALID,0,VALID,100,VALID,0.0679233,VALID,18.658,VALID,130,VALID,0,
2008-07-03, 02:55:00,VALID,917.51,VALID,0,VALID,100,VALID,0.0849042,VALID,18.6478,VALID,130,VALID,0,
2008-07-03, 02:56:00,VALID,917.515,VALID,0,VALID,100,VALID,0.0339617,VALID,18.6413,VALID,130,VALID,0,
2008-07-03, 02:57:00,VALID,917.521,VALID,0,VALID,100,VALID,0.0509425,VALID,18.6447,VALID,130,VALID,0,
2008-07-03, 02:58:00,VALID,917.537,VALID,0,VALID,100,VALID,0.0679233,VALID,18.6348,VALID,130,VALID,0,
2008-07-03, 02:59:00,VALID,917.553,VALID,0,VALID,100,VALID,0.0849042,VALID,18.645,VALID,130,VALID,0,
2008-07-03, 03:00:00,VALID,917.547,VALID,0,VALID,100,VALID,0.0849042,VALID,18.648,VALID,130,VALID,0,
2008-07-03, 03:01:00,VALID,917.548,VALID,0,VALID,100,VALID,0.0679233,VALID,18.6508,VALID,130,VALID,0,
2008-07-03, 03:02:00,VALID,917.537,VALID,0,VALID,100,VALID,0.0339617,VALID,18.651,VALID,130,VALID,0,
2008-07-03, 03:03:00,VALID,917.502,VALID,0,VALID,100,VALID,0.0339617,VALID,18.6445,VALID,130,VALID,0,
2008-07-03, 03:04:00,VALID,917.484,VALID,0,VALID,100,VALID,0.0509425,VALID,18.6515,VALID,130,VALID,0,
2008-07-03, 03:05:00,VALID,917.471,VALID,0,VALID,100,VALID,0.0339617,VALID,18.6447,VALID,130,VALID,0,
2008-07-03, 03:06:00,VALID,917.476,VALID,0,VALID,100,VALID,0.0339617,VALID,18.638,VALID,130,VALID,0,
2008-07-03, 03:07:00,VALID,917.464,VALID,0,VALID,100,VALID,0.101885,VALID,18.6413,VALID,130,VALID,0,
2008-07-03, 03:08:00,VALID,917.486,VALID,0,VALID,100,VALID,-0.0169808,VALID,18.6315,VALID,130,VALID,0,
2008-07-03, 03:09:00,VALID,917.478,VALID,0,VALID,100,VALID,-0.0509425,VALID,18.6232,VALID,130,VALID,0,
2008-07-03, 03:10:00,VALID,917.485,VALID,0,VALID,100,VALID,-0.0339617,VALID,18.6228,VALID,130,VALID,0,
2008-07-03, 03:11:00,VALID,917.503,VALID,0,VALID,100,VALID,-0.0169808,VALID,18.6295,VALID,130,VALID,0,
2008-07-03, 03:12:00,VALID,917.515,VALID,0,VALID,100,VALID,-0.0509425,VALID,18.6235,VALID,130,VALID,0,
2008-07-03, 03:13:00,VALID,917.53,VALID,0,VALID,100,VALID,-0.0339617,VALID,18.6033,VALID,130,VALID,0,
2008-07-03, 03:14:00,VALID,917.553,VALID,0,VALID,100,VALID,-0.0339617,VALID,18.6075,VALID,130,VALID,0,
2008-07-03, 03:15:00,VALID,917.571,VALID,0,VALID,100,VALID,-0.0679233,VALID,18.5838,VALID,130,VALID,0,
2008-07-03, 03:16:00,VALID,917.585,VALID,0,VALID,100,VALID,-0.0509425,VALID,18.5811,VALID,130,VALID,0,
2008-07-03, 03:17:00,VALID,917.597,VALID,0,VALID,100,VALID,-0.0509425,VALID,18.5943,VALID,130,VALID,0,
2008-07-03, 03:18:00,VALID,917.597,VALID,0,VALID,100,VALID,-0.0849042,VALID,18.5938,VALID,130,VALID,0,
2008-07-03, 03:19:00,VALID,917.573,VALID,0,VALID,100,VALID,-0.0169808,VALID,18.6063,VALID,130,VALID,0,
2008-07-03, 03:20:00,VALID,917.537,VALID,0,VALID,100,VALID,0,VALID,18.6362,VALID,130,VALID,0,
2008-07-03, 03:21:00,VALID,917.507,VALID,0,VALID,100,VALID,-0.0679233,VALID,18.6392,VALID,130,VALID,0,
2008-07-03, 03:22:00,VALID,917.481,VALID,0,VALID,100,VALID,-0.0339617,VALID,18.6394,VALID,130,VALID,0,
2008-07-03, 03:23:00,VALID,917.474,VALID,0,VALID,100,VALID,-0.0679233,VALID,18.6297,VALID,94,VALID,0,
2008-07-03, 03:24:00,VALID,917.483,VALID,0,VALID,100,VALID,-0.0679233,VALID,18.6364,VALID,69,VALID,0,
2008-07-03, 03:25:00,VALID,917.478,VALID,0,VALID,100,VALID,-0.0679233,VALID,18.6102,VALID,48,VALID,0,
2008-07-03, 03:26:00,VALID,917.498,VALID,0,VALID,100,VALID,-0.0169808,VALID,18.5868,VALID,48,VALID,0,
2008-07-03, 03:27:00,VALID,917.514,VALID,0,VALID,100,VALID,-0.0679233,VALID,18.5843,VALID,48,VALID,0,
2008-07-03, 03:28:00,VALID,917.531,VALID,0,VALID,100,VALID,-0.0849042,VALID,18.614,VALID,48,VALID,0,
2008-07-03, 03:29:00,VALID,917.53,VALID,0,VALID,100,VALID,-0.0339617,VALID,18.6165,VALID,48,VALID,0,
2008-07-03, 03:30:00,VALID,917.522,VALID,0,VALID,100,VALID,-0.0169808,VALID,18.6364,VALID,48,VALID,0,
2008-07-03, 03:31:00,VALID,917.508,VALID,0,VALID,100,VALID,-0.0169808,VALID,18.6392,VALID,48,VALID,0,
2008-07-03, 03:32:00,VALID,917.49,VALID,0,VALID,100,VALID,-0.0509425,VALID,18.6452,VALID,48,VALID,0,
2008-07-03, 03:33:00,VALID,917.477,VALID,0,VALID,100,VALID,-0.0339617,VALID,18.6684,VALID,48,VALID,0,
2008-07-03, 03:34:00,VALID,917.462,VALID,0,VALID,100,VALID,-0.0169808,VALID,18.6754,VALID,48,VALID,0,
2008-07-03, 03:35:00,VALID,917.463,VALID,0,VALID,100,VALID,-0.0509425,VALID,18.6614,VALID,48,VALID,0,
2008-07-03, 03:36:00,VALID,917.467,VALID,0,VALID,100,VALID,0.0339617,VALID,18.6644,VALID,48,VALID,0,
2008-07-03, 03:37:00,VALID,917.483,VALID,0,VALID,100,VALID,0,VALID,18.6807,VALID,48,VALID,0,
2008-07-03, 03:38:00,VALID,917.478,VALID,0,VALID,100,VALID,0,VALID,18.6874,VALID,48,VALID,0,
2008-07-03, 03:39:00,VALID,917.482,VALID,0,VALID,100,VALID,-0.0169808,VALID,18.6876,VALID,48,VALID,0,
2008-07-03, 03:40:00,VALID,917.465,VALID,0,VALID,100,VALID,-0.0679233,VALID,18.6876,VALID,48,VALID,0,
2008-07-03, 03:41:00,VALID,917.448,VALID,0,VALID,100,VALID,-0.0339617,VALID,18.6846,VALID,48,VALID,0,
2008-07-03, 03:42:00,VALID,917.437,VALID,0,VALID,100,VALID,-0.0339617,VALID,18.6552,VALID,48,VALID,0,
2008-07-03, 03:43:00,VALID,917.412,VALID,0,VALID,100,VALID,-0.0509425,VALID,18.6429,VALID,48,VALID,0,
2008-07-03, 03:44:00,VALID,917.426,VALID,0,VALID,100,VALID,-0.0509425,VALID,18.6292,VALID,48,VALID,0,
2008-07-03, 03:45:00,VALID,917.422,VALID,0,VALID,100,VALID,-0.0509425,VALID,18.604,VALID,48,VALID,0,
2008-07-03, 03:46:00,VALID,917.432,VALID,0,VALID,100,VALID,-0.0509425,VALID,18.5646,VALID,53,VALID,0,
2008-07-03, 03:47:00,VALID,917.438,VALID,0,VALID,100,VALID,-0.0169808,VALID,18.5486,VALID,76,VALID,0,